Station ESPP4 - 9752695 - Esperanza, Viequez Island, PR Image indicating link to RSS feed of recent meteorological observations for station ESPP4


Conditions at ESPP4 as of
(1:18 pm AST)
1718 GMT on 11/30/2023:
     

Click on the graph icon in the table below to see a time series plot of the last five days of that observation.

5-day plot - Wind Direction Wind Direction (WDIR):ENE ( 70 deg true )
5-day plot - Wind Speed Wind Speed (WSPD): 4.1 kts
5-day plot - Wind Gust Wind Gust (GST): 8.0 kts
5-day plot - Atmospheric Pressure Atmospheric Pressure (PRES):29.99 in
5-day plot - Water Temperature Water Temperature (WTMP): 84.2 °F
5-day plot - Wind Speed at 10 Meters Wind Speed at 10 meters (WSPD10M): 3.9 kts
5-day plot - Wind Speed at 20 Meters Wind Speed at 20 meters (WSPD20M): 3.9 kts
5-day plot -  Wind Speed, Wind Gust and Atmospheric Pressure Combined plot of Wind Speed, Gust, and Air Pressure
NOS Water Level Observation Network Water Level
Previous observations
TIME
(AST)
5-day plot - Wind Direction
WDIR
 
5-day plot - Wind Speed
WSPD
kts
5-day plot - Wind Gust
GST
kts
5-day plot - Wave Height
WVHT
ft
5-day plot - Dominant Wave Period
DPD
sec
5-day plot - Average Wave Period
APD
sec
5-day plot - Mean Wave Direction
MWD
 
5-day plot - Atmospheric Pressure
PRES
in
5-day plot - Pressure Tendency
PTDY
in
5-day plot - Air Temperature
ATMP
°F
5-day plot - Water Temperature
WTMP
°F
5-day plot - Dew Point
DEWP
°F
5-day plot - Salinity
SAL
psu
5-day plot - Visibility
VIS
nmi
5-day plot - Tide (above MLLW)
TIDE
ft
2023-11-30 01:12 pm E 6.0 13.0----29.99-- 84.2----
2023-11-30 01:06 pmESE 12.0 17.1----29.99-- 84.2----
2023-11-30 01:00 pm E 7.0 12.0----30.00-0.04 81.9 84.2----
2023-11-30 12:54 pmENE 5.1 8.9----30.00- 82.2 84.0----
2023-11-30 12:48 pm-------30.00- 82.4 84.0----
2023-11-30 12:42 pm-------30.00- 82.8 84.0----
2023-11-30 12:36 pm-------30.01- 82.2 84.0----
2023-11-30 12:30 pm NE 6.0 12.0----30.01- 81.7 84.0----
2023-11-30 12:24 pm NE 8.0 13.0----30.01- 81.9 84.0----
2023-11-30 12:18 pm NE 5.1 9.9----30.01- 82.6 84.0----
2023-11-30 12:12 pmENE 6.0 9.9----30.01- 82.9 84.0----
2023-11-30 12:06 pmENE 4.1 8.9----30.01- 82.6 84.0----
2023-11-30 12:00 pmNNE 2.9 7.0------- 83.8----
2023-11-30 11:54 amNNE 6.0 8.9------- 83.8----
2023-11-30 11:48 amNNE 6.0 8.0----30.02- 81.3 83.8----
2023-11-30 11:42 am NE 5.1 9.9----30.03- 81.0 83.8----
2023-11-30 11:36 am NE 5.1 9.9----30.03- 80.1 83.8----
2023-11-30 11:30 am-------30.03-- 83.8----
2023-11-30 11:24 am-------30.03-- 83.8----
2023-11-30 11:18 amENE 9.9 18.1----30.03- 79.2 83.7----
2023-11-30 11:12 amENE 7.0 12.0----30.03- 81.5 83.7----
2023-11-30 11:06 am NE 5.1 9.9----30.03- 81.7 83.7----
2023-11-30 11:00 amENE 5.1 11.1----30.03+0.02- 83.7----
2023-11-30 10:54 am NE 5.1 12.0----30.03-- 83.7----
2023-11-30 10:48 amENE 8.0 14.0----30.03- 82.6 83.7----
2023-11-30 10:42 amENE 8.9 13.0----30.03- 82.8 83.7----
2023-11-30 10:36 amENE 7.0 11.1----30.03- 83.7 83.7----
2023-11-30 10:30 amENE 8.0 12.0----30.04- 83.3 83.7----
2023-11-30 10:24 amENE 5.1 9.9----30.04- 84.2 83.5----
2023-11-30 10:18 am NE 7.0 13.0----30.04- 83.3 83.5----
2023-11-30 10:12 amENE 8.9 13.0----30.04- 82.9 83.5----
2023-11-30 10:06 amENE 7.0 11.1----30.04- 83.1 83.5----
2023-11-30 10:00 amENE 7.0 9.9----30.04+0.05 83.1 83.3----
2023-11-30 09:54 amENE 5.1 12.0----30.04- 83.1 83.3----
2023-11-30 09:48 am NE 7.0 12.0----30.04- 82.8 83.3----
2023-11-30 09:42 amENE 7.0 11.1----30.04- 82.6 83.3----
2023-11-30 09:36 amENE 7.0 9.9----30.04- 82.6 83.3----
2023-11-30 09:30 am NE 6.0 12.0----30.04- 82.4 83.3----
2023-11-30 09:24 amENE 7.0 9.9----30.03- 82.2 83.1----
2023-11-30 09:18 am NE 6.0 13.0----30.03- 82.2 83.1----
2023-11-30 09:12 am NE 6.0 11.1----30.03- 82.0 83.1----
2023-11-30 09:06 am NE 4.1 8.9----30.03- 82.0 83.1----
2023-11-30 09:00 am NE 5.1 11.1----30.03+0.06 81.9 83.1----
2023-11-30 08:54 am NE 6.0 9.9----30.03- 81.5 82.9----
2023-11-30 08:48 am NE 5.1 7.0----30.03- 81.9 82.9----
2023-11-30 08:42 am NE 6.0 12.0----30.03- 81.7 82.9----
2023-11-30 08:36 am NE 4.1 8.0----30.03- 81.7 83.1----
2023-11-30 08:30 am NE 5.1 8.0----30.02- 81.3 83.1----
2023-11-30 08:24 am NE 5.1 7.0----30.02- 81.1 83.1----
2023-11-30 08:18 am NE 4.1 7.0----30.02- 80.8 82.9----
2023-11-30 08:12 am NE 5.1 8.0----30.02- 80.4 82.9----
2023-11-30 08:06 am NE 4.1 6.0----30.01- 80.2 82.9----
2023-11-30 08:00 am NE 2.9 6.0----30.01+0.06 80.1 82.9----
2023-11-30 07:54 am NE 2.9 5.1----30.01- 79.7 82.9----
2023-11-30 07:48 am NE 2.9 5.1----30.01- 79.3 82.9----
2023-11-30 07:42 am NE 2.9 5.1----30.01- 79.0 82.9----
2023-11-30 07:36 am NE 2.9 5.1----30.00- 78.6 82.9----
2023-11-30 07:30 amNNE 2.9 5.1----30.00- 78.1 82.8----
2023-11-30 07:24 amNNE 2.9 4.1----30.00- 77.4 82.8----
2023-11-30 07:18 amNNE 4.1 5.1----30.00- 76.8 82.8----
2023-11-30 07:12 amNNE 2.9 4.1----30.00- 76.5 82.8----
2023-11-30 07:06 amNNE 2.9 5.1----30.00- 75.9 82.8----
2023-11-30 07:00 amNNE 1.9 4.1----29.99+0.04 75.4 82.6----
2023-11-30 06:54 amNNE 1.9 4.1----29.99- 75.0 82.8----
2023-11-30 06:48 amNNE 1.9 2.9----29.99- 74.7 82.8----
2023-11-30 06:42 amNNE 2.9 2.9----29.99- 74.5 82.8----
2023-11-30 06:36 amNNE 2.9 4.1----29.98- 74.5 82.8----
2023-11-30 06:30 amNNE 2.9 4.1----29.98- 74.3 82.8----
2023-11-30 06:24 amNNE 2.9 4.1----29.98- 74.5 82.9----
2023-11-30 06:18 amNNE 2.9 4.1----29.98- 74.5 82.9----
2023-11-30 06:12 amNNE 2.9 4.1----29.98- 74.1 82.9----
2023-11-30 06:06 amNNE 1.9 4.1----29.98- 74.1 82.9----
2023-11-30 06:00 amNNE 1.9 4.1----29.97+0.01 74.1 82.9----
2023-11-30 05:54 amNNE 2.9 4.1----29.97- 73.9 82.8----
2023-11-30 05:48 amNNE 2.9 5.1----29.97- 73.9 82.8----
2023-11-30 05:42 amNNE 2.9 4.1----29.97- 73.8 82.8----
2023-11-30 05:36 amNNE 1.9 4.1----29.97- 73.8 82.9----
2023-11-30 05:30 amNNE 2.9 4.1----29.97- 73.8 82.8----
2023-11-30 05:24 amNNE 4.1 5.1----29.97- 73.8 82.9----
2023-11-30 05:18 am N 2.9 5.1----29.96- 73.6 83.1----
2023-11-30 05:12 amNNE 2.9 5.1----29.96- 73.6 83.1----
2023-11-30 05:06 am N 4.1 5.1----29.96- 73.6 83.1----
2023-11-30 05:00 amNNE 2.9 4.1----29.96-0.01- 83.1----
2023-11-30 04:54 amNNE 2.9 5.1----29.96-- 83.1----
2023-11-30 04:48 amNNE 2.9 5.1----29.96- 73.6 82.9----
2023-11-30 04:42 am N 2.9 4.1----29.96- 73.4 82.9----
2023-11-30 04:36 am N 2.9 4.1----29.96- 73.4 82.9----
2023-11-30 04:30 am N 2.9 4.1----29.96- 73.4 82.9----
2023-11-30 04:24 amNNE 2.9 4.1----29.96- 73.4 82.9----
2023-11-30 04:18 amNNE 2.9 4.1----29.96- 73.6 82.9----
2023-11-30 04:12 am N 2.9 5.1----29.96- 73.6 82.9----
2023-11-30 04:06 am N 2.9 4.1----29.96- 73.6 83.1----
2023-11-30 04:00 amNNE 1.9 5.1----29.96-0.02 73.6 83.1----
2023-11-30 03:54 am N 2.9 4.1----29.96- 73.6 83.1----
2023-11-30 03:48 am N 2.9 4.1----29.96- 73.4 83.3----
2023-11-30 03:42 am N 2.9 4.1----29.96- 73.2 83.3----
2023-11-30 03:36 amNNE 1.9 2.9----29.96- 73.0 83.3----
2023-11-30 03:30 amNNE 1.9 2.9----29.96- 73.4 83.3----
2023-11-30 03:24 amNNE 1.9 2.9----29.96- 73.4 83.3----
2023-11-30 03:18 amNNE 1.9 2.9----29.96- 73.6 83.3----
2023-11-30 03:12 amNNE 2.9 4.1----29.96- 73.6 83.5----
2023-11-30 03:06 amNNE 1.9 2.9----29.96- 73.4 83.3----
2023-11-30 03:00 amNNE 1.9 2.9----29.96-0.03 73.6 83.3----
2023-11-30 02:54 amNNE 1.9 4.1----29.96- 73.8 83.3----
2023-11-30 02:48 amNNE 2.9 4.1----29.96- 73.8 83.3----
2023-11-30 02:42 am N 2.9 5.1----29.96- 73.8 83.5----
2023-11-30 02:36 am N 1.9 4.1----29.97- 73.8 83.5----
2023-11-30 02:30 amNNE 2.9 4.1----29.97- 73.8 83.5----
2023-11-30 02:24 amNNE 2.9 2.9----29.97- 73.8 83.5----
2023-11-30 02:18 amNNE 1.9 4.1----29.97- 73.8 83.5----
2023-11-30 02:12 amNNE 2.9 4.1----29.97- 73.8 83.5----
2023-11-30 02:06 amNNE 1.9 2.9----29.97- 73.8 83.5----
2023-11-30 02:00 amNNE 1.9 2.9----29.97-0.03 73.9 83.5----
2023-11-30 01:54 amNNE 1.9 4.1----29.97- 73.9 83.7----
2023-11-30 01:48 amNNE 2.9 4.1----29.97- 74.1 83.7----
2023-11-30 01:42 amNNE 1.9 4.1----29.97- 73.9 83.7----
2023-11-30 01:36 amNNE 1.9 2.9----29.98- 73.9 83.7----
2023-11-30 01:30 amNNE 1.9 2.9----29.98- 73.9 83.5----
2023-11-30 01:24 amNNE 1.9 2.9----29.98- 73.9 83.5----
2023-11-30 01:18 am NE 1.9 2.9----29.98- 73.9 83.5----
2023-11-30 01:12 amNNE 2.9 4.1----29.98- 74.1 83.5----
2023-11-30 01:06 am NE 1.9 2.9----29.98- 74.1 83.5----
2023-11-30 01:00 am NE 1.9 2.9----29.98-0.02 74.1 83.5----
2023-11-30 12:54 am NE 1.9 2.9----29.98- 74.3 83.5----
2023-11-30 12:48 amNNE 1.9 2.9----29.98- 74.5 83.5----
2023-11-30 12:42 amNNE 1.9 2.9----29.99- 74.5 83.5----
2023-11-30 12:36 amNNE 2.9 4.1----29.98- 74.7 83.5----
2023-11-30 12:30 amNNE 2.9 4.1----29.99- 74.5 83.5----
2023-11-30 12:24 amNNE 2.9 4.1----29.99- 74.5 83.5----
2023-11-30 12:18 amNNE 2.9 4.1----29.99- 74.5 83.7----
2023-11-30 12:12 amNNE 1.9 4.1----29.99- 74.7 83.7----
2023-11-30 12:06 amNNE 1.9 2.9----29.99- 74.7 83.7----
2023-11-30 12:00 amNNE 2.9 4.1----29.99+0.00 74.8 83.7----
2023-11-29 11:54 pmNNE 2.9 2.9----29.99- 74.8 83.8----
2023-11-29 11:48 pmNNE 1.9 2.9----29.99- 74.7 84.0----
2023-11-29 11:42 pmNNE 2.9 2.9----29.99- 74.8 84.0----
2023-11-29 11:36 pmNNE 1.9 2.9----29.99- 75.0 84.2----
2023-11-29 11:30 pmNNE 1.9 2.9----29.99- 75.0 84.2----
2023-11-29 11:24 pmNNE 1.9 4.1----29.99- 75.2 84.4----
2023-11-29 11:18 pmNNE 2.9 4.1----30.00- 75.0 84.4----
2023-11-29 11:12 pmNNE 2.9 2.9----30.00- 75.2 84.4----
2023-11-29 11:06 pmNNE 1.9 4.1----30.00- 75.4 84.4----
2023-11-29 11:00 pmNNE 2.9 4.1----30.00+0.02 75.4 84.4----
2023-11-29 10:54 pm NE 2.9 4.1----30.00- 75.4 84.4----
2023-11-29 10:48 pmNNE 2.9 4.1----30.00- 75.6 84.4----
2023-11-29 10:42 pmNNE 2.9 4.1----30.00- 75.7 84.4----
2023-11-29 10:36 pm NE 1.9 2.9----30.00- 76.1 84.4----
2023-11-29 10:30 pmNNE 1.9 2.9----30.00- 75.9 84.4----
2023-11-29 10:24 pmNNE 2.9 4.1----30.00- 76.1 84.4----
2023-11-29 10:18 pmNNE 2.9 4.1----30.00- 76.1 84.4----
2023-11-29 10:12 pmNNE 2.9 4.1----30.00- 75.9 84.4----
2023-11-29 10:06 pmNNE 1.9 2.9----30.00- 75.7 84.4----
2023-11-29 10:00 pmNNE 2.9 4.1----30.00+0.04 75.6 84.6----
2023-11-29 09:54 pmNNE 1.9 4.1----30.00- 75.6 84.6----
2023-11-29 09:48 pmNNE 2.9 4.1----30.00- 75.4 84.6----
2023-11-29 09:42 pm NE 1.9 4.1----30.00- 75.4 84.6----
2023-11-29 09:36 pmNNE 2.9 4.1----30.00- 75.2 84.6----
2023-11-29 09:30 pmNNE 2.9 4.1----30.00- 75.2 84.7----
2023-11-29 09:24 pmNNE 2.9 4.1----30.00- 75.2 84.7----
2023-11-29 09:18 pmNNE 2.9 4.1----29.99- 75.4 84.7----
2023-11-29 09:12 pmNNE 2.9 4.1----29.99- 75.6 84.7----
2023-11-29 09:06 pmNNE 2.9 4.1----29.99- 75.6 84.7----
2023-11-29 09:00 pmNNE 1.9 4.1----29.99+0.05 75.7 84.7----
2023-11-29 08:54 pmNNE 2.9 4.1----29.99- 75.7 84.7----
2023-11-29 08:48 pmNNE 2.9 5.1----29.99- 75.7 84.7----
2023-11-29 08:42 pmNNE 2.9 4.1----29.99- 75.7 84.7----
2023-11-29 08:36 pmNNE 2.9 4.1----29.98- 75.7 84.7----
2023-11-29 08:30 pm N 2.9 5.1----29.98- 75.7 84.7----
2023-11-29 08:24 pmNNE 2.9 4.1----29.98- 75.7 84.9----
2023-11-29 08:18 pm N 2.9 4.1----29.98- 75.9 84.9----
2023-11-29 08:12 pmNNE 1.9 4.1----29.98- 75.9 84.7----
2023-11-29 08:06 pmNNE 2.9 5.1----29.98- 75.9 84.9----
2023-11-29 08:00 pmNNE 2.9 5.1----29.98+0.04 75.9 84.7----
2023-11-29 07:54 pm N 2.9 5.1----29.97- 76.1 84.9----
2023-11-29 07:48 pm N 2.9 5.1----29.97- 76.1 84.9----
2023-11-29 07:42 pm N 2.9 4.1----29.97- 76.1 84.7----
2023-11-29 07:36 pm N 2.9 5.1----29.97- 76.1 84.7----
2023-11-29 07:30 pm N 2.9 4.1------------
2023-11-29 07:24 pm N 2.9 4.1------------
2023-11-29 07:18 pm N 1.9 4.1----29.97-- 84.7----
2023-11-29 07:12 pm N 2.9 5.1----29.96-- 84.6----
2023-11-29 07:00 pm-------29.96+0.02------
2023-11-29 06:54 pm-------29.96-------
2023-11-29 06:48 pmNNE 2.9 4.1----29.96- 76.8 84.6----
2023-11-29 06:42 pm N 2.9 5.1----29.95- 77.0 84.6----
2023-11-29 06:36 pmNNE 2.9 5.1----29.95- 77.2 84.6----
2023-11-29 06:30 pmNNE 2.9 5.1------- 84.6----
2023-11-29 06:24 pm N 2.9 5.1------- 84.6----
2023-11-29 06:18 pm-------29.95-------
2023-11-29 06:12 pm-------29.94-------
2023-11-29 06:06 pm-------29.94-------
2023-11-29 06:00 pm NE 2.9 8.0----29.94+0.00------
2023-11-29 05:54 pmENE 4.1 8.0----29.94-------
2023-11-29 05:48 pmENE 5.1 8.0----29.94-- 84.7----
2023-11-29 05:42 pm E 6.0 8.0----29.94-- 84.7----
2023-11-29 05:36 pmENE 4.1 7.0----29.94-- 84.7----
2023-11-29 05:30 pmENE 6.0 8.9----29.94- 81.7 84.7----
2023-11-29 05:24 pmENE 6.0 8.9----29.94- 81.9 84.7----
2023-11-29 05:18 pm E 7.0 9.9----29.94- 82.0 84.7----
2023-11-29 05:12 pm E 6.0 8.9----29.94- 82.4 84.9----
2023-11-29 05:06 pm E 6.0 8.9----29.94- 82.6 84.9----
2023-11-29 05:00 pm-------29.94-0.02 82.6-----
2023-11-29 04:54 pm-------29.94- 82.8-----
2023-11-29 04:48 pm E 6.0 9.9----29.94- 82.8 84.9----
2023-11-29 04:42 pm E 7.0 11.1----29.94- 82.8 85.1----
2023-11-29 04:36 pmENE 6.0 9.9----29.94- 82.9 85.1----
2023-11-29 04:30 pm E 7.0 11.1------ 82.8 85.1----
2023-11-29 04:24 pmENE 7.0 11.1------ 82.9 85.1----
2023-11-29 04:18 pm E 7.0 9.9------------
2023-11-29 04:12 pmENE 6.0 8.9------------
2023-11-29 04:06 pm E 8.0 9.9------------
2023-11-29 04:00 pm-------29.94-0.04 83.1 85.3----
2023-11-29 03:54 pm-------29.94- 83.1 85.5----
2023-11-29 03:48 pm E 7.0 11.1----29.94- 82.9 85.5----
2023-11-29 03:42 pm E 7.0 11.1----29.94- 82.9 85.5----
2023-11-29 03:36 pm E 6.0 9.9----29.95- 83.1 85.5----
2023-11-29 03:30 pm E 7.0 12.0----29.94- 82.9 85.5----
2023-11-29 03:24 pm E 8.0 11.1----29.94- 83.1 85.5----
2023-11-29 03:18 pm E 7.0 11.1----29.94- 82.9 85.5----
2023-11-29 03:12 pm E 8.9 12.0----29.95- 82.8 85.5----
2023-11-29 03:06 pm E 8.9 12.0----29.95- 82.9 85.5----
2023-11-29 03:00 pm E 8.9 12.0----29.95-0.06 82.9 85.5----
2023-11-29 02:54 pm E 7.0 11.1----29.95- 83.1 85.5----
2023-11-29 02:48 pm E 11.1 13.0----29.95- 82.8 85.5----
2023-11-29 02:42 pm E 8.0 13.0----29.95- 83.1 85.3----
2023-11-29 02:36 pm E 7.0 12.0----29.96- 83.1 85.3----
2023-11-29 02:30 pm E 9.9 12.0----29.96- 83.1 85.3----
2023-11-29 02:24 pm E 9.9 13.0----29.96- 82.9 85.3----
2023-11-29 02:18 pm E 9.9 13.0----29.96- 82.8 85.3----
2023-11-29 02:12 pm E 11.1 13.0----29.96- 82.9 85.3----
2023-11-29 02:06 pm E 11.1 13.0----29.96- 82.8 85.3----
2023-11-29 02:00 pm E 8.0 13.0----29.96-0.05 82.9 85.3----
2023-11-29 01:54 pm E 8.0 14.0----29.96- 83.3 85.3----